Location: Grossmotten
(48.5500°N, 15.3833°E)
Time: 15:34:17
(UTC+00:00)

NOSS 3-4 (C) - Pass Details

Date: 15 November 2019
Orbit: 908 x 1304 km, 63.4° (Epoch: 02 December)

Event Time Altitude Azimuth Distance (km) Brightness Sun altitude
Exits shadow 04:19:59 14° 322° (NW) 2,587 5.3 -17.4°
Maximum altitude 04:26:00 71° 45° (NE) 1,200 4.0 -16.4°
Drops below altitude 10° 04:33:34 10° 129° (SE) 3,162 7.1 -15.2°
Sets 04:36:28 0° 132° (SE) 4,171 7.9 -14.7°
